Location: Unspecified
(42.9300°N, 71.1866°W)
Time: 21:31:45
(UTC-04:00)

CZ-3 Stage 3 - Visible Passes

Search period start: 25 August 2016 00:00
Search period end: 04 September 2016 00:00
Orbit: 481 x 34722 km, 30.5° (Epoch: 24 August)

Date Brightness Start Highest point End Pass type
(mag) Time Alt. Az. Time Alt. Az. Time Alt. Az.
27 Aug 5.7 23:02:53 10° W 23:11:25 15° WSW 23:13:39 14° SW visible
30 Aug 5.7 22:54:33 10° W 23:02:40 14° WSW 23:05:20 13° SW visible
02 Sep 5.7 22:46:15 10° W 22:53:53 14° WSW 22:57:01 12° SW visible
